This demonstration page uses our WeatherBlox Daily Observations layout. Learn more.

Left ArrowRight Arrow

Hourly Observations for June 16, 2015

Temp ( °F °C ) Dew Point ( °F °C ) Humidity (%) Winds ( mph kmh ) Pressure ( in mb ) Visibility ( mi km ) Precip ( " mm )
12:51 am 00:51 Clear 83 28.3 47 8.3 28 28 ESE 8 13 29.78 1008 10 16 0.00 0.00
1:51 am 01:51 Clear 83 28.3 49 9.4 31 31 E 13 20 29.79 1009 10 16 0.00 0.00
2:51 am 02:51 Clear 82 27.8 50 10 33 33 E 14 22 29.80 1009 10 16 0.00 0.00
3:51 am 03:51 Clear 81 27.2 51 10.6 35 35 E 13 20 29.80 1009 10 16 0.00 0.00
4:51 am 04:51 Clear 81 27.2 51 10.6 35 35 E 12 19 29.83 1010 10 16 0.00 0.00
5:51 am 05:51 Sunny 80 26.7 52 11.1 38 38 E 9 15 29.85 1011 10 16 0.00 0.00
6:51 am 06:51 Sunny 78 25.6 52 11.1 40 40 SE 7 11 29.88 1012 10 16 0.00 0.00
7:51 am 07:51 Sunny 81 27.2 53 11.7 38 38 SSE 8 13 29.88 1012 10 16 0.00 0.00
8:51 am 08:51 Sunny 87 30.6 54 12.2 32 32 S 14 22 29.87 1012 10 16 0.00 0.00
9:51 am 09:51 Sunny 91 32.8 55 12.8 30 30 SE 9 15 29.86 1011 10 16 0.00 0.00
10:51 am 10:51 Sunny 94 34.4 54 12.2 26 26 ENE 8 13 29.85 1011 10 16 0.00 0.00
11:51 am 11:51 Sunny 95 35 53 11.7 24 24 VRB 3 6 29.81 1010 10 16 0.00 0.00
12:51 pm 12:51 Sunny 97 36.1 51 10.6 21 21 S 8 13 29.79 1009 10 16 0.00 0.00
1:51 pm 13:51 Sunny 98 36.7 49 9.4 19 19 undefined N/A 29.75 1008 10 16 0.00 0.00
2:51 pm 14:51 Sunny 101 38.3 45 7.2 15 15 undefined N/A 29.72 1007 10 16 0.00 0.00
3:40 pm 15:40 Sunny with Nearby Thunderstorms 96 35.6 42 5.6 15 15 NNE 35 56 29.62 1003 10 16 0.00 0.00
3:51 pm 15:51 Sunny with Nearby Thunderstorms 95 35 41 5 15 15 NNE 32 52 29.72 1007 10 16 0.00 0.00
4:01 pm 16:01 Sunny 94 34.4 42 5.6 17 17 NNE 31 50 29.65 1004 10 16 0.00 0.00
4:51 pm 16:51 Sunny 94 34.4 39 3.9 15 15 NNE 28 44 29.72 1007 10 16 0.00 0.00
5:51 pm 17:51 Sunny 88 31.1 51 10.6 28 28 SE 21 33 29.76 1008 10 16 0.00 0.00
6:04 pm 18:04 Sunny 85 29.4 53 11.7 33 33 ESE 17 28 29.74 1007 10 16 0.00 0.00
6:51 pm 18:51 Sunny 87 30.6 49 9.4 27 27 SE 18 30 29.79 1009 10 16 0.00 0.00
7:51 pm 19:51 Clear 84 28.9 50 10 31 31 SE 9 15 29.81 1009 10 16 0.00 0.00
8:51 pm 20:51 Clear 83 28.3 50 10 32 32 ESE 8 13 29.83 1010 10 16 0.00 0.00
9:51 pm 21:51 Clear 81 27.2 49 9.4 33 33 SSE 6 9 29.82 1010 10 16 0.00 0.00
10:51 pm 22:51 Clear 79 26.1 49 9.4 35 35 ENE 6 9 29.81 1010 10 16 0.00 0.00
11:51 pm 23:51 Clear 78 25.6 49 9.4 36 36 E 6 9 29.81 1010 10 16 0.00 0.00

Powered by AerisWeather